HP3ICC-13 Weather Reports


time (UTC)temp
F
wind
direction
speed
knots
gust
knots
rain 1hr
in
rain 24hr
in
rain mn
in
humidity
%
barometer
mb
20260507164514 86 352 11.3 10.4 0.00 0.00 0.00 62 1011.0
20260507164414 86 352 11.3 10.4 0.00 0.00 0.00 62 1011.0
20260507162514 84 357 9.6 11.3 0.00 0.00 0.00 70 1011.0
20260507162414 84 357 9.6 11.3 0.00 0.00 0.00 70 1011.0
20260507160513 85 357 10.4 11.3 0.00 0.00 0.00 70 1011.0
20260507160413 85 357 10.4 11.3 0.00 0.00 0.00 70 1011.0
20260507154512 84 358 9.6 12.2 0.00 0.00 0.00 70 1011.0
20260507154412 84 358 9.6 12.2 0.00 0.00 0.00 70 1011.0
20260507152512 84 358 9.6 12.2 0.00 0.00 0.00 70 1011.0
20260507152411 84 358 9.6 12.2 0.00 0.00 0.00 70 1011.0
20260507150511 84 358 9.6 12.2 0.00 0.00 0.00 70 1011.0
20260507150411 84 358 9.6 12.2 0.00 0.00 0.00 70 1011.0
20260507144511 81 353 6.1 13.0 0.00 0.00 0.00 70 1011.0
20260507144411 81 353 6.1 13.0 0.00 0.00 0.00 70 1011.0
20260507142510 81 353 6.1 13.0 0.00 0.00 0.00 70 1011.0
20260507142410 81 353 6.1 13.0 0.00 0.00 0.00 70 1011.0
20260507140510 81 353 6.1 13.0 0.00 0.00 0.00 70 1011.0
20260507140409 81 353 6.1 13.0 0.00 0.00 0.00 70 1011.0
20260507134509 81 353 6.1 13.0 0.00 0.00 0.00 70 1011.0
20260507134409 81 353 6.1 13.0 0.00 0.00 0.00 70 1011.0
20260507132508 81 353 6.1 13.0 0.00 0.00 0.00 70 1011.0
20260507132408 81 353 6.1 13.0 0.00 0.00 0.00 70 1011.0
20260507130508 81 353 6.1 13.0 0.00 0.00 0.00 70 1011.0
20260507130408 81 353 6.1 13.0 0.00 0.00 0.00 70 1011.0
20260507124507 81 353 6.1 13.0 0.00 0.00 0.00 70 1011.0
20260507124407 81 353 6.1 13.0 0.00 0.00 0.00 70 1011.0
20260507122506 81 353 6.1 13.0 0.00 0.00 0.00 70 1010.0
20260507122406 81 353 6.1 13.0 0.00 0.00 0.00 70 1010.0
20260507120506 81 353 6.1 13.0 0.00 0.00 0.00 70 1010.0
20260507120406 81 353 6.1 13.0 0.00 0.00 0.00 70 1010.0
20260507114505 81 353 6.1 13.0 0.00 0.00 0.00 70 1010.0
20260507114405 81 353 6.1 13.0 0.00 0.00 0.00 70 1010.0
20260507112505 81 353 6.1 13.0 0.00 0.00 0.00 70 1010.0
20260507112405 81 353 6.1 13.0 0.00 0.00 0.00 70 1010.0
20260507110504 81 353 6.1 13.0 0.00 0.00 0.00 70 1010.0
20260507110404 81 353 6.1 13.0 0.00 0.00 0.00 70 1010.0
20260507104504 81 353 6.1 13.0 0.00 0.00 0.00 70 1010.0
20260507104403 81 353 6.1 13.0 0.00 0.00 0.00 70 1010.0
20260507102503 81 353 6.1 13.0 0.00 0.00 0.00 70 1010.0
20260507102403 81 353 6.1 13.0 0.00 0.00 0.00 70 1010.0
20260507100503 81 353 6.1 13.0 0.00 0.00 0.00 70 1010.0
20260507100402 81 353 6.1 13.0 0.00 0.00 0.00 70 1010.0
20260507094502 81 353 6.1 13.0 0.00 0.00 0.00 70 1010.0
20260507094402 81 353 6.1 13.0 0.00 0.00 0.00 70 1010.0
20260507092502 81 353 6.1 13.0 0.00 0.00 0.00 70 1010.0
20260507092401 81 353 6.1 13.0 0.00 0.00 0.00 70 1010.0
20260507090501 81 353 6.1 13.0 0.00 0.00 0.00 70 1010.0
20260507090401 81 353 6.1 13.0 0.00 0.00 0.00 70 1010.0
20260507084500 81 353 6.1 13.0 0.00 0.00 0.00 70 1010.0
20260507084400 81 353 6.1 13.0 0.00 0.00 0.00 70 1010.0
20260507082500 81 353 6.1 13.0 0.00 0.00 0.00 70 1010.0
20260507082400 81 353 6.1 13.0 0.00 0.00 0.00 70 1010.0
20260507080459 81 353 6.1 13.0 0.00 0.00 0.00 70 1010.0
20260507080359 81 353 6.1 13.0 0.00 0.00 0.00 70 1010.0
20260507074459 81 353 6.1 13.0 0.00 0.00 0.00 70 1010.0
20260507074359 81 353 6.1 13.0 0.00 0.00 0.00 70 1010.0
20260507072459 81 353 6.1 13.0 0.00 0.00 0.00 70 1011.0
20260507072358 81 353 6.1 13.0 0.00 0.00 0.00 70 1011.0
20260507070458 81 353 6.1 13.0 0.00 0.00 0.00 70 1011.0
20260507070358 81 353 6.1 13.0 0.00 0.00 0.00 70 1011.0
20260507064458 81 353 6.1 13.0 0.00 0.00 0.00 70 1011.0
20260507064358 81 353 6.1 13.0 0.00 0.00 0.00 70 1011.0
20260507062457 81 353 6.1 13.0 0.00 0.00 0.00 70 1011.0
20260507062357 81 353 6.1 13.0 0.00 0.00 0.00 70 1011.0
20260507060456 81 353 6.1 13.0 0.00 0.00 0.00 70 1011.0
20260507060356 81 353 6.1 13.0 0.00 0.00 0.00 70 1011.0
20260507054456 81 353 6.1 13.0 0.00 0.00 0.00 70 1011.0
20260507054355 81 353 6.1 13.0 0.00 0.00 0.00 70 1011.0
20260507052455 81 353 6.1 13.0 0.00 0.00 0.00 70 1012.0
20260507052355 81 353 6.1 13.0 0.00 0.00 0.00 70 1012.0
20260507050455 81 353 6.1 13.0 0.00 0.00 0.00 70 1012.0
20260507050354 81 353 6.1 13.0 0.00 0.00 0.00 70 1012.0
20260507044454 81 353 6.1 13.0 0.00 0.00 0.00 70 1012.0
20260507044353 81 353 6.1 13.0 0.00 0.00 0.00 70 1012.0
20260507042453 81 353 6.1 13.0 0.00 0.00 0.00 70 1012.0
20260507042353 81 353 6.1 13.0 0.00 0.00 0.00 70 1012.0
20260507040453 81 353 6.1 13.9 0.00 0.00 0.00 70 1012.0
20260507040352 81 353 6.1 13.9 0.00 0.00 0.00 70 1012.0
20260507034452 84 357 8.7 15.6 0.00 0.00 0.00 68 1012.0
20260507034352 84 357 8.7 15.6 0.00 0.00 0.00 68 1012.0
20260507032452 84 357 8.7 15.6 0.00 0.00 0.00 68 1012.0
20260507032351 84 357 8.7 15.6 0.00 0.00 0.00 68 1012.0
20260507030451 84 357 8.7 15.6 0.00 0.00 0.00 68 1012.0
20260507030351 84 357 8.7 15.6 0.00 0.00 0.00 68 1012.0
20260507024451 84 357 8.7 15.6 0.00 0.00 0.00 68 1012.0
20260507024350 84 357 8.7 15.6 0.00 0.00 0.00 68 1012.0
20260507022450 84 357 8.7 15.6 0.00 0.00 0.00 68 1011.0
20260507022350 84 357 8.7 15.6 0.00 0.00 0.00 68 1011.0
20260507020450 84 357 8.7 15.6 0.00 0.00 0.00 68 1011.0
20260507020349 84 357 8.7 15.6 0.00 0.00 0.00 68 1011.0
20260507014449 84 357 8.7 15.6 0.00 0.00 0.00 68 1011.0
20260507014349 84 357 8.7 15.6 0.00 0.00 0.00 68 1011.0
20260507012448 84 357 8.7 15.6 0.00 0.00 0.00 68 1010.0
20260507012348 84 357 8.7 15.6 0.00 0.00 0.00 68 1010.0
20260507010447 84 357 8.7 15.6 0.00 0.00 0.00 68 1010.0
20260507010347 84 357 8.7 15.6 0.00 0.00 0.00 68 1010.0
20260507004447 84 357 8.7 15.6 0.00 0.00 0.00 68 1010.0
20260507004346 84 357 8.7 15.6 0.00 0.00 0.00 68 1010.0
20260507002446 84 357 8.7 15.6 0.00 0.00 0.00 68 1009.0
20260507002346 84 357 8.7 15.6 0.00 0.00 0.00 68 1009.0
20260507000446 84 357 8.7 16.5 0.00 0.00 0.00 68 1009.0
20260507000346 84 357 8.7 16.5 0.00 0.00 0.00 68 1009.0
20260506234445 87 359 11.3 9.6 0.00 0.00 0.00 63 1009.0
20260506234345 87 359 11.3 9.6 0.00 0.00 0.00 63 1009.0
20260506232445 87 359 11.3 9.6 0.00 0.00 0.00 63 1009.0
20260506232345 87 359 11.3 9.6 0.00 0.00 0.00 63 1009.0
20260506230445 87 359 11.3 9.6 0.00 0.00 0.00 63 1009.0
20260506230344 87 359 11.3 9.6 0.00 0.00 0.00 63 1009.0
20260506224444 87 359 11.3 9.6 0.00 0.00 0.00 63 1009.0
20260506224344 87 359 11.3 9.6 0.00 0.00 0.00 63 1009.0
20260506222443 87 359 11.3 9.6 0.00 0.00 0.00 63 1008.0
20260506222343 87 359 11.3 9.6 0.00 0.00 0.00 63 1008.0
20260506220442 87 359 11.3 9.6 0.00 0.00 0.00 63 1008.0
20260506220342 87 359 11.3 9.6 0.00 0.00 0.00 63 1008.0
20260506214442 87 359 11.3 9.6 0.00 0.00 0.00 63 1008.0
20260506214342 87 359 11.3 9.6 0.00 0.00 0.00 63 1008.0
20260506212442 87 359 11.3 9.6 0.00 0.00 0.00 63 1008.0
20260506212341 87 359 11.3 9.6 0.00 0.00 0.00 63 1008.0
20260506210441 87 359 11.3 9.6 0.00 0.00 0.00 63 1008.0
20260506210341 87 359 11.3 9.6 0.00 0.00 0.00 63 1008.0
20260506204440 87 359 11.3 9.6 0.00 0.00 0.00 63 1008.0
20260506204340 87 359 11.3 9.6 0.00 0.00 0.00 63 1008.0
20260506202440 87 359 11.3 9.6 0.00 0.00 0.00 63 1009.0
20260506202339 87 359 11.3 9.6 0.00 0.00 0.00 63 1009.0
20260506200439 87 359 11.3 9.6 0.00 0.00 0.00 63 1009.0
20260506200339 87 359 11.3 9.6 0.00 0.00 0.00 63 1009.0
20260506194439 87 359 11.3 9.6 0.00 0.00 0.00 63 1009.0
20260506194338 87 359 11.3 9.6 0.00 0.00 0.00 63 1009.0
20260506192438 87 359 11.3 9.6 0.01 0.00 0.00 63 1009.0
20260506192338 87 359 11.3 9.6 0.01 0.00 0.00 63 1009.0
20260506190438 87 359 11.3 9.6 0.00 0.00 0.00 63 1009.0
20260506190338 87 359 11.3 9.6 0.00 0.00 0.00 63 1009.0
20260506184437 87 359 11.3 9.6 0.01 0.00 0.00 63 1009.0
20260506184337 87 359 11.3 9.6 0.01 0.00 0.00 63 1009.0
20260506182437 87 359 11.3 9.6 0.00 0.00 0.00 63 1010.0
20260506182336 87 359 11.3 9.6 0.00 0.00 0.00 63 1010.0
20260506180436 87 359 11.3 9.6 0.00 0.00 0.00 63 1010.0
20260506180336 87 359 11.3 9.6 0.00 0.00 0.00 63 1010.0
20260506174436 87 359 11.3 10.4 0.00 0.00 0.00 63 1010.0
20260506174335 87 359 11.3 10.4 0.00 0.00 0.00 63 1010.0
20260506172435 86 2 10.4 10.4 0.00 0.00 0.00 71 1011.0
20260506172335 86 2 10.4 10.4 0.00 0.00 0.00 71 1011.0
20260506170434 86 2 10.4 10.4 0.00 0.00 0.00 71 1011.0
20260506170334 86 2 10.4 10.4 0.00 0.00 0.00 71 1011.0